Flag for U.S.A. Weather past 2 weeks in Sioux Falls, South Dakota, U.S.A.

Now
67 °F

Clear.


Feels Like: 67 °F
Forecast: 60 / 81 °F
Wind: No wind

Location: Foss Field

Current Time: Jul 4, 2015 at 3:42:45 AM

Latest Report: Jul 4, 2015 at 2:56 AM


Visibility: 9 mi

Pressure: 29.95 "Hg

Humidity: 79%

Dew point: 60 °F

Location of Sioux FallsLocation

Historic Weather in Sioux Falls — Graph

°F

Sioux Falls temperature yesterday

Maximum temperature yesterday: 78 °F (at 4:56 PM)
Minimum temperature yesterday: 52 °F (at 5:56 AM)
Average temperature yesterday: 66 °F

Past Weeks' High & Low Weather Summary

 TemperatureHumidityPressure
High85 °F (Jun 27, 3:56 PM)100% (Jul 3, 3:56 AM)30.16 "Hg (Jul 3, 3:56 AM)
Low52 °F (Jul 3, 5:56 AM)37% (Jun 21, 1:56 PM)27.72 "Hg (Jun 22, 5:00 AM)
Average70 °F70%29.94 "Hg
* Reported Jun 19 1:56 AM — Jul 4 1:56 AM, Sioux Falls, Weather by CustomWeather, © 2015

Note: Actual official high and low records may vary slightly from our data, if they occured in-between our weather recording intervals... More about our weather records

Advertising

Sioux Falls weather history for previous 24 hours

 ConditionsComfort  
Time TempWeatherWind HumidityBarometerVisibility
1:56 AM
Sat, Jul 4
68 °FClear.5 mph78%29.95 "Hg9 mi
12:56 AM69 °FClear.6 mph79%29.94 "Hg9 mi
11:56 PM
Fri, Jul 3
69 °FPassing clouds.3 mph79%29.94 "Hg8 mi
10:56 PM70 °FPassing clouds.3 mph79%29.94 "Hg9 mi
9:56 PM72 °FPartly sunny.3 mph73%29.93 "Hg10 mi
8:56 PM74 °FHigh level clouds.No wind69%29.92 "Hg10 mi
7:56 PM76 °FHigh level clouds.No wind67%29.93 "Hg8 mi
6:56 PM77 °FOvercast.No wind62%29.94 "Hg10 mi
5:56 PM78 °FPartly sunny.3 mph60%29.95 "Hg10 mi
4:56 PM78 °FPartly sunny.3 mph58%29.96 "Hg10 mi
3:56 PM77 °FBroken clouds.5 mph62%29.96 "Hg10 mi
2:56 PM76 °FMostly cloudy.7 mph64%29.98 "Hg10 mi
1:56 PM74 °FPartly sunny.No wind67%30.00 "Hg10 mi
12:56 PM72 °FPassing clouds.7 mph68%29.99 "Hg10 mi
11:56 AM71 °FSunny.5 mph68%29.99 "Hg10 mi
10:56 AM69 °FSunny.5 mph76%30.00 "Hg9 mi
9:56 AM64 °FLow clouds.No wind87%30.02 "Hg7 mi
8:56 AM62 °FLow clouds.3 mph90%30.02 "Hg10 mi
7:56 AM57 °FSunny.No wind93%30.02 "Hg8 mi
7:03 AM53 °FFog.No wind96%30.02 "Hg0 mi
6:56 AM53 °FFog.No wind93%30.02 "Hg1 mi
5:56 AM52 °FFog.No wind97%30.01 "Hg0 mi
4:56 AM53 °FFog.No wind96%30.01 "Hg0 mi
3:56 AM54 °FFog.No wind100%30.01 "Hg1 mi
Weather by CustomWeather, © 2015

See weather overviewHow to use our weather pages